Tracking 30923 objects as of 1-Jul-2025
HD Live streaming from Space Station
objects crossing your sky now

ONEWEB-0139

Track ONEWEB-0139 now!
10-day predictions
ONEWEB-0139 is classified as:


NORAD ID: 47285
Int'l Code: 2020-100AD
Perigee: 1,219.5 km
Apogee: 1,222.3 km
Inclination: 87.9 °
Period: 109.7 minutes
Semi major axis: 7591 km
RCS: Unknown
Launch date: December 18, 2020
Source: United Kingdom (UK)
Launch site: VOSTOCHNY COSMODROME (VOSTO)
Your satellite tracking list
Your tracking list is empty




NASA's NSSDC Master Catalog

Two Line Element Set (TLE):
1 47285U 20100AD  25181.94274148  .00000192  00000-0  49923-3 0  9997
2 47285  87.8874  60.5051 0001839  79.9045 280.2291 13.12444689218650
Source of the keplerian elements: AFSPC